This is the latest recevied weather packets stored in our database for station/object XW7RMR. If no packets are shown the sender has not sent any weather packets the latest 10 day(s).
| Time | Temp. | Humidity | Pressure | Rain* | Wind** | Luminosity | Snow |
|---|---|---|---|---|---|---|---|
| 1777217723 | 9.44° C | 72% | 1008.9 hPa | 0 mm | - | 257 W/m² | - |
| 1777217419 | 9.44° C | 71% | 1008.7 hPa | 0 mm | - | 207 W/m² | - |
| 1777217115 | 10° C | 71% | 1008.7 hPa | 0 mm | - | 208 W/m² | - |
| 1777216811 | 10° C | 70% | 1008.4 hPa | 0 mm | - | 146 W/m² | - |
| 1777216509 | 10.56° C | 70% | 1008.5 hPa | 0 mm | - | 70 W/m² | - |
| 1777216204 | 10.56° C | 68% | 1008.5 hPa | 0 mm | - | 188 W/m² | - |
| 1777215903 | 10° C | 71% | 1008.5 hPa | 0 mm | - | 190 W/m² | - |
| 1777215599 | 9.44° C | 70% | 1008.5 hPa | 0 mm | - | 88 W/m² | - |
| 1777215295 | 10.56° C | 66% | 1008.6 hPa | 0 mm | - | 169 W/m² | - |
| 1777214991 | 10° C | 65% | 1008.4 hPa | 0 mm | - | 158 W/m² | - |
| 1777214685 | 9.44° C | 67% | 1008.2 hPa | 0 mm | - | 150 W/m² | - |
| 1777214385 | 10° C | 65% | 1008.3 hPa | 0 mm | - | 144 W/m² | - |
| 1777214085 | 9.44° C | 67% | 1008.3 hPa | 0 mm | - | 129 W/m² | - |
| 1777213785 | 9.44° C | 67% | 1008.1 hPa | 0 mm | - | 112 W/m² | - |
| 1777213481 | 8.89° C | 69% | 1008.2 hPa | 0 mm | - | 97 W/m² | - |
| 1777213178 | 7.22° C | 74% | 1008.1 hPa | 0 mm | - | 83 W/m² | - |
| 1777212874 | 6.11° C | 79% | 1008 hPa | 0 mm | - | 68 W/m² | - |
| 1777212572 | 5.56° C | 80% | 1008.2 hPa | 0 mm | - | 58 W/m² | - |
| 1777212270 | 5.56° C | 80% | 1008.1 hPa | 0 mm | - | 48 W/m² | - |
| 1777211966 | 5.56° C | 80% | 1008 hPa | 0 mm | - | 40 W/m² | - |
| 1777211661 | 5° C | 83% | 1008 hPa | 0 mm | - | 34 W/m² | - |
| 1777211356 | 4.44° C | 85% | 1007.7 hPa | 0 mm | - | 27 W/m² | - |
| 1777211052 | 4.44° C | 86% | 1007.9 hPa | 0 mm | - | 23 W/m² | - |
| 1777210749 | 3.89° C | 87% | 1007.6 hPa | 0 mm | - | 23 W/m² | - |
| 1777210443 | 3.89° C | 87% | 1007.7 hPa | 0 mm | - | 17 W/m² | - |
* Rain latest hour (hover to see other rain measurements)
** Current wind speed in m/s (hover to see current wind gust speed)